Time,TemperatureF,DewpointF,PressureIn,WindDirection,WindDirectionDegrees,WindSpeedMPH,WindSpeedGustMPH,Humidity,HourlyPrecipIn,Conditions,Clouds,dailyrainin,SolarRadiationWatts/m^2,SoftwareType,DateUTC
2013-04-29 00:02:00,54.8,54.0,30.12,East,100,2.0,5.0,97,0.26,,,0.01,0,Wunderground v.1.15,2013-04-29 04:02:00,
2013-04-29 00:04:00,54.8,54.0,30.12,East,92,2.0,5.0,97,0.18,,,0.02,0,Wunderground v.1.15,2013-04-29 04:04:00,
2013-04-29 00:06:00,54.7,53.9,30.12,East,92,2.0,5.0,97,0.18,,,0.02,0,Wunderground v.1.15,2013-04-29 04:06:00,
2013-04-29 00:12:00,54.7,53.9,30.12,East,92,1.0,1.0,97,0.12,,,0.03,0,Wunderground v.1.15,2013-04-29 04:12:00,
2013-04-29 00:14:00,54.7,53.9,30.12,East,90,0.0,2.0,97,0.11,,,0.03,0,Wunderground v.1.15,2013-04-29 04:14:00,
2013-04-29 00:16:00,54.7,53.9,30.12,WNW,291,1.0,5.0,97,0.08,,,0.03,0,Wunderground v.1.15,2013-04-29 04:16:00,
2013-04-29 00:22:00,54.8,54.0,30.12,NW,304,1.0,1.0,97,0.07,,,0.04,0,Wunderground v.1.15,2013-04-29 04:22:00,
2013-04-29 00:28:00,54.8,54.0,30.12,WNW,299,0.0,1.0,97,0.07,,,0.05,0,Wunderground v.1.15,2013-04-29 04:28:00,
2013-04-29 00:34:00,54.8,54.0,30.12,WNW,299,0.0,1.0,97,0.08,,,0.06,0,Wunderground v.1.15,2013-04-29 04:34:00,
2013-04-29 00:40:00,54.8,54.0,30.12,WNW,299,0.0,2.0,97,0.08,,,0.06,0,Wunderground v.1.15,2013-04-29 04:40:00,
2013-04-29 00:46:00,54.8,54.0,30.11,WNW,299,0.0,2.0,97,0.06,,,0.07,0,Wunderground v.1.15,2013-04-29 04:46:00,
2013-04-29 00:52:00,54.8,54.0,30.11,NNW,342,0.0,1.0,97,0.32,,,0.09,0,Wunderground v.1.15,2013-04-29 04:52:00,
2013-04-29 00:58:00,55.0,54.2,30.11,NNW,343,1.0,1.0,97,0.22,,,0.11,0,Wunderground v.1.15,2013-04-29 04:58:00,
2013-04-29 01:04:00,55.0,54.2,30.10,NNW,343,1.0,2.0,97,0.14,,,0.12,0,Wunderground v.1.15,2013-04-29 05:04:00,
2013-04-29 01:10:00,55.0,54.2,30.10,NNW,343,1.0,2.0,97,0.11,,,0.13,0,Wunderground v.1.15,2013-04-29 05:10:00,
2013-04-29 01:16:00,55.0,54.2,30.10,NNW,343,0.0,2.0,97,0.06,,,0.14,0,Wunderground v.1.15,2013-04-29 05:16:00,
2013-04-29 01:22:00,55.0,54.4,30.10,NNW,343,0.0,0.0,98,0.06,,,0.14,0,Wunderground v.1.15,2013-04-29 05:22:00,
2013-04-29 01:28:00,55.1,54.5,30.10,NNW,343,0.0,0.0,98,0.07,,,0.15,0,Wunderground v.1.15,2013-04-29 05:28:00,
2013-04-29 01:34:00,55.1,54.5,30.10,NNW,343,0.0,0.0,98,0.14,,,0.17,0,Wunderground v.1.15,2013-04-29 05:34:00,
2013-04-29 01:40:00,55.1,54.5,30.10,NNW,343,0.0,0.0,98,0.15,,,0.18,0,Wunderground v.1.15,2013-04-29 05:40:00,
2013-04-29 01:46:00,55.1,54.5,30.09,NNW,343,0.0,0.0,98,0.44,,,0.23,0,Wunderground v.1.15,2013-04-29 05:46:00,
2013-04-29 01:52:00,55.1,54.5,30.09,NNW,343,0.0,0.0,98,0.38,,,0.27,0,Wunderground v.1.15,2013-04-29 05:52:00,
2013-04-29 01:58:00,55.3,54.7,30.09,NNW,343,0.0,2.0,98,0.16,,,0.27,0,Wunderground v.1.15,2013-04-29 05:58:00,
2013-04-29 02:04:00,55.3,54.7,30.08,NNW,343,0.0,0.0,98,0.14,,,0.29,0,Wunderground v.1.15,2013-04-29 06:04:00,
2013-04-29 02:10:00,55.3,54.7,30.08,NNW,343,0.0,0.0,98,0.33,,,0.31,0,Wunderground v.1.15,2013-04-29 06:10:00,
2013-04-29 02:16:00,55.4,54.8,30.08,NNW,343,0.0,0.0,98,0.30,,,0.34,0,Wunderground v.1.15,2013-04-29 06:16:00,
2013-04-29 02:22:00,55.4,54.8,30.08,NNW,343,0.0,0.0,98,0.34,,,0.37,0,Wunderground v.1.15,2013-04-29 06:22:00,
2013-04-29 02:28:00,55.4,54.8,30.08,NNW,343,0.0,0.0,98,0.34,,,0.39,0,Wunderground v.1.15,2013-04-29 06:28:00,
2013-04-29 02:34:00,55.4,54.8,30.07,NNW,343,0.0,2.0,98,0.25,,,0.40,0,Wunderground v.1.15,2013-04-29 06:34:00,
2013-04-29 02:40:00,55.6,55.0,30.07,NNW,343,0.0,0.0,98,0.12,,,0.42,0,Wunderground v.1.15,2013-04-29 06:40:00,
2013-04-29 02:46:00,55.6,55.0,30.07,NNW,343,0.0,0.0,98,0.12,,,0.43,0,Wunderground v.1.15,2013-04-29 06:46:00,
2013-04-29 02:52:00,55.6,55.0,30.07,NNW,343,0.0,0.0,98,0.10,,,0.44,0,Wunderground v.1.15,2013-04-29 06:52:00,
2013-04-29 02:58:00,55.6,55.0,30.07,NNW,343,0.0,0.0,98,0.22,,,0.46,0,Wunderground v.1.15,2013-04-29 06:58:00,
2013-04-29 03:04:00,55.7,55.1,30.07,NNW,343,0.0,2.0,98,0.22,,,0.48,0,Wunderground v.1.15,2013-04-29 07:04:00,
2013-04-29 03:10:00,55.7,55.1,30.07,NNW,343,0.0,0.0,98,0.11,,,0.49,0,Wunderground v.1.15,2013-04-29 07:10:00,
2013-04-29 03:16:00,55.7,55.1,30.05,NNW,343,0.0,0.0,98,0.11,,,0.51,0,Wunderground v.1.15,2013-04-29 07:16:00,
2013-04-29 03:22:00,55.7,55.1,30.05,NNW,343,0.0,0.0,98,0.79,,,0.56,0,Wunderground v.1.15,2013-04-29 07:22:00,
2013-04-29 03:28:00,55.7,55.1,30.05,NNW,343,0.0,1.0,98,0.44,,,0.64,0,Wunderground v.1.15,2013-04-29 07:28:00,
2013-04-29 03:34:00,55.9,55.3,30.05,NNW,343,0.0,2.0,98,0.16,,,0.65,0,Wunderground v.1.15,2013-04-29 07:34:00,
2013-04-29 03:40:00,55.9,55.3,30.05,East,93,1.0,1.0,98,0.16,,,0.67,0,Wunderground v.1.15,2013-04-29 07:40:00,
2013-04-29 03:46:00,55.9,55.3,30.05,East,93,1.0,1.0,98,0.08,,,0.67,0,Wunderground v.1.15,2013-04-29 07:46:00,
2013-04-29 03:52:00,56.0,55.7,30.05,East,93,0.0,0.0,99,0.05,,,0.68,0,Wunderground v.1.15,2013-04-29 07:52:00,
2013-04-29 03:58:00,56.0,55.7,30.05,NW,323,1.0,5.0,99,0.05,,,0.68,0,Wunderground v.1.15,2013-04-29 07:58:00,
2013-04-29 04:04:00,56.2,55.9,30.06,NNW,328,1.0,2.0,99,0.06,,,0.69,0,Wunderground v.1.15,2013-04-29 08:04:00,
2013-04-29 04:10:00,56.2,55.9,30.06,NNW,328,0.0,2.0,99,0.45,,,0.73,0,Wunderground v.1.15,2013-04-29 08:10:00,
2013-04-29 04:16:00,56.2,55.9,30.05,ESE,121,2.0,4.0,99,0.14,,,0.75,0,Wunderground v.1.15,2013-04-29 08:16:00,
2013-04-29 04:22:00,56.3,56.0,30.05,ESE,119,2.0,2.0,99,0.12,,,0.76,0,Wunderground v.1.15,2013-04-29 08:22:00,
2013-04-29 04:28:00,56.3,56.0,30.05,ESE,119,1.0,2.0,99,0.21,,,0.77,0,Wunderground v.1.15,2013-04-29 08:28:00,
2013-04-29 04:34:00,56.3,56.0,30.04,ESE,119,0.0,0.0,99,0.11,,,0.78,0,Wunderground v.1.15,2013-04-29 08:34:00,
2013-04-29 04:40:00,56.3,56.0,30.04,ESE,119,0.0,0.0,99,0.10,,,0.79,0,Wunderground v.1.15,2013-04-29 08:40:00,
2013-04-29 04:46:00,56.3,56.0,30.04,ESE,119,0.0,1.0,99,0.13,,,0.81,0,Wunderground v.1.15,2013-04-29 08:46:00,
2013-04-29 04:52:00,56.5,56.2,30.04,ESE,119,0.0,0.0,99,0.50,,,0.84,0,Wunderground v.1.15,2013-04-29 08:52:00,
2013-04-29 04:58:00,56.5,56.2,30.04,ESE,119,0.0,0.0,99,0.13,,,0.85,0,Wunderground v.1.15,2013-04-29 08:58:00,
2013-04-29 05:04:00,56.5,56.2,30.04,ESE,119,0.0,0.0,99,0.11,,,0.86,0,Wunderground v.1.15,2013-04-29 09:04:00,
2013-04-29 05:11:00,56.6,56.3,30.04,ESE,119,1.0,1.0,99,0.11,,,0.87,0,Wunderground v.1.15,2013-04-29 09:11:00,
2013-04-29 05:16:00,56.6,56.3,30.03,ESE,119,1.0,1.0,99,0.11,,,0.88,0,Wunderground v.1.15,2013-04-29 09:16:00,
2013-04-29 05:22:00,56.6,56.3,30.03,ESE,119,0.0,1.0,99,0.68,,,0.91,0,Wunderground v.1.15,2013-04-29 09:22:00,
2013-04-29 05:28:00,56.7,56.4,30.03,ESE,119,1.0,1.0,99,0.28,,,0.94,0,Wunderground v.1.15,2013-04-29 09:28:00,
2013-04-29 05:34:00,56.9,56.6,30.03,NW,309,1.0,1.0,99,0.43,,,0.97,0,Wunderground v.1.15,2013-04-29 09:34:00,
2013-04-29 05:40:00,57.0,56.7,30.03,NW,309,1.0,2.0,99,0.10,,,0.98,0,Wunderground v.1.15,2013-04-29 09:40:00,
2013-04-29 05:46:00,57.2,56.9,30.04,NW,309,0.0,1.0,99,0.09,,,0.98,0,Wunderground v.1.15,2013-04-29 09:46:00,
2013-04-29 05:52:00,57.3,57.0,30.04,SW,220,1.0,2.0,99,0.23,,,1.01,0,Wunderground v.1.15,2013-04-29 09:52:00,
2013-04-29 05:58:00,57.5,57.2,30.04,South,179,3.0,5.0,99,0.15,,,1.02,0,Wunderground v.1.15,2013-04-29 09:58:00,
2013-04-29 06:04:00,57.6,57.3,30.03,South,179,2.0,3.0,99,0.15,,,1.02,0,Wunderground v.1.15,2013-04-29 10:04:00,
2013-04-29 06:11:00,57.6,57.3,30.03,South,179,1.0,1.0,99,0.07,,,1.03,0,Wunderground v.1.15,2013-04-29 10:11:00,
2013-04-29 06:16:00,57.6,57.3,30.04,South,179,0.0,1.0,99,0.08,,,1.04,0,Wunderground v.1.15,2013-04-29 10:16:00,
2013-04-29 06:22:00,57.6,57.3,30.04,South,179,0.0,2.0,99,0.18,,,1.06,0,Wunderground v.1.15,2013-04-29 10:22:00,
2013-04-29 06:28:00,57.6,57.3,30.04,South,179,1.0,2.0,99,0.14,,,1.07,0,Wunderground v.1.15,2013-04-29 10:28:00,
2013-04-29 06:34:00,57.6,57.3,30.04,South,179,1.0,1.0,99,0.06,,,1.07,0,Wunderground v.1.15,2013-04-29 10:34:00,
2013-04-29 06:40:00,57.8,57.5,30.04,South,179,0.0,2.0,99,0.05,,,1.08,0,Wunderground v.1.15,2013-04-29 10:40:00,
2013-04-29 06:46:00,57.8,57.5,30.05,WNW,284,0.0,2.0,99,0.11,,,1.09,0,Wunderground v.1.15,2013-04-29 10:46:00,
2013-04-29 06:52:00,58.0,57.7,30.05,WNW,301,0.0,0.0,99,0.09,,,1.10,0,Wunderground v.1.15,2013-04-29 10:52:00,
2013-04-29 06:58:00,58.1,57.8,30.05,WNW,301,0.0,5.0,99,0.14,,,1.11,0,Wunderground v.1.15,2013-04-29 10:58:00,
2013-04-29 07:04:00,58.3,58.0,30.06,SW,217,1.0,2.0,99,0.10,,,1.12,14,Wunderground v.1.15,2013-04-29 11:04:00,
2013-04-29 07:11:00,58.3,58.0,30.06,SW,217,1.0,1.0,99,0.08,,,1.13,19,Wunderground v.1.15,2013-04-29 11:11:00,
2013-04-29 07:16:00,58.4,58.1,30.05,SW,217,1.0,2.0,99,0.06,,,1.13,21,Wunderground v.1.15,2013-04-29 11:16:00,
2013-04-29 07:22:00,58.4,58.1,30.05,SW,217,0.0,0.0,99,0.04,,,1.13,23,Wunderground v.1.15,2013-04-29 11:22:00,
2013-04-29 07:28:00,58.6,58.3,30.05,SW,217,0.0,2.0,99,0.00,,,1.13,19,Wunderground v.1.15,2013-04-29 11:28:00,
2013-04-29 07:34:00,58.6,58.3,30.06,SW,217,1.0,1.0,99,0.00,,,1.14,21,Wunderground v.1.15,2013-04-29 11:34:00,
2013-04-29 07:41:00,58.7,58.4,30.06,SW,217,1.0,3.0,99,0.00,,,1.14,30,Wunderground v.1.15,2013-04-29 11:41:00,
2013-04-29 07:46:00,58.7,58.4,30.05,SW,217,2.0,2.0,99,0.00,,,1.14,32,Wunderground v.1.15,2013-04-29 11:46:00,
2013-04-29 07:52:00,58.7,58.4,30.05,SW,217,1.0,1.0,99,0.00,,,1.15,33,Wunderground v.1.15,2013-04-29 11:52:00,
2013-04-29 07:58:00,58.7,58.4,30.05,SW,217,0.0,1.0,99,0.00,,,1.15,37,Wunderground v.1.15,2013-04-29 11:58:00,
2013-04-29 08:04:00,58.7,58.4,30.06,SW,217,0.0,0.0,99,0.00,,,1.15,42,Wunderground v.1.15,2013-04-29 12:04:00,
2013-04-29 08:10:00,58.9,58.6,30.06,SW,217,0.0,0.0,99,0.00,,,1.16,49,Wunderground v.1.15,2013-04-29 12:10:00,
2013-04-29 08:16:00,59.2,59.2,30.06,SW,217,0.0,0.0,100,0.00,,,1.16,48,Wunderground v.1.15,2013-04-29 12:16:00,
2013-04-29 08:22:00,59.3,59.3,30.06,SW,217,0.0,0.0,100,0.00,,,1.16,58,Wunderground v.1.15,2013-04-29 12:22:00,
2013-04-29 08:28:00,59.5,59.5,30.06,SW,217,0.0,0.0,100,0.00,,,1.16,67,Wunderground v.1.15,2013-04-29 12:28:00,
2013-04-29 08:34:00,59.8,59.8,30.06,SW,217,0.0,3.0,100,0.00,,,1.17,63,Wunderground v.1.15,2013-04-29 12:34:00,
2013-04-29 08:40:00,59.9,59.9,30.06,SW,217,1.0,1.0,100,0.00,,,1.17,69,Wunderground v.1.15,2013-04-29 12:40:00,
2013-04-29 08:46:00,60.1,60.1,30.06,SW,217,1.0,2.0,100,0.00,,,1.17,70,Wunderground v.1.15,2013-04-29 12:46:00,
2013-04-29 08:52:00,60.4,60.4,30.06,SW,217,1.0,1.0,100,0.00,,,1.17,90,Wunderground v.1.15,2013-04-29 12:52:00,
2013-04-29 08:58:00,60.5,60.5,30.06,SW,217,1.0,1.0,100,0.00,,,1.17,102,Wunderground v.1.15,2013-04-29 12:58:00,
2013-04-29 09:04:00,60.7,60.7,30.06,SW,217,1.0,2.0,100,0.00,,,1.17,121,Wunderground v.1.15,2013-04-29 13:04:00,
2013-04-29 09:10:00,60.9,60.9,30.06,SSW,213,1.0,2.0,100,0.00,,,1.17,123,Wunderground v.1.15,2013-04-29 13:10:00,
2013-04-29 09:16:00,61.0,61.0,30.06,SSW,213,1.0,2.0,100,0.00,,,1.18,99,Wunderground v.1.15,2013-04-29 13:16:00,
2013-04-29 09:22:00,61.3,61.3,30.06,SSW,213,1.0,2.0,100,0.00,,,1.18,107,Wunderground v.1.15,2013-04-29 13:22:00,
2013-04-29 09:28:00,61.5,61.5,30.06,SSW,213,1.0,2.0,100,0.00,,,1.18,93,Wunderground v.1.15,2013-04-29 13:28:00,
2013-04-29 09:34:00,61.6,61.6,30.06,NNW,340,1.0,3.0,100,0.00,,,1.18,114,Wunderground v.1.15,2013-04-29 13:34:00,
2013-04-29 09:40:00,61.8,61.8,30.06,SW,217,1.0,1.0,100,0.00,,,1.18,91,Wunderground v.1.15,2013-04-29 13:40:00,
2013-04-29 09:46:00,62.0,62.0,30.06,SW,217,1.0,1.0,100,0.00,,,1.18,120,Wunderground v.1.15,2013-04-29 13:46:00,
2013-04-29 09:52:00,62.1,62.1,30.06,SW,217,0.0,1.0,100,0.00,,,1.18,97,Wunderground v.1.15,2013-04-29 13:52:00,
2013-04-29 09:58:00,62.3,62.3,30.06,SW,217,0.0,1.0,100,0.00,,,1.18,99,Wunderground v.1.15,2013-04-29 13:58:00,
2013-04-29 10:04:00,62.4,62.4,30.05,SW,217,0.0,0.0,100,0.00,,,1.18,113,Wunderground v.1.15,2013-04-29 14:04:00,
2013-04-29 10:10:00,62.6,62.6,30.05,SW,217,0.0,0.0,100,0.00,,,1.18,116,Wunderground v.1.15,2013-04-29 14:10:00,
2013-04-29 10:16:00,62.7,62.7,30.05,SW,217,0.0,1.0,100,0.00,,,1.18,86,Wunderground v.1.15,2013-04-29 14:16:00,
2013-04-29 10:22:00,62.7,62.7,30.05,SW,217,1.0,2.0,100,0.00,,,1.18,111,Wunderground v.1.15,2013-04-29 14:22:00,
2013-04-29 10:28:00,62.7,62.7,30.05,SW,217,1.0,2.0,100,0.00,,,1.18,86,Wunderground v.1.15,2013-04-29 14:28:00,
2013-04-29 10:34:00,62.7,62.7,30.05,SW,217,0.0,0.0,100,0.00,,,1.18,109,Wunderground v.1.15,2013-04-29 14:34:00,
2013-04-29 10:40:00,63.1,63.1,30.05,East,93,0.0,0.0,100,0.00,,,1.18,143,Wunderground v.1.15,2013-04-29 14:40:00,
2013-04-29 10:46:00,63.2,63.2,30.05,East,93,0.0,1.0,100,0.00,,,1.18,204,Wunderground v.1.15,2013-04-29 14:46:00,
2013-04-29 10:52:00,63.5,63.5,30.05,East,93,0.0,0.0,100,0.00,,,1.18,199,Wunderground v.1.15,2013-04-29 14:52:00,
2013-04-29 10:58:00,63.7,63.7,30.05,East,93,0.0,1.0,100,0.00,,,1.18,278,Wunderground v.1.15,2013-04-29 14:58:00,
2013-04-29 11:04:00,63.9,63.9,30.06,East,93,0.0,2.0,100,0.00,,,1.18,213,Wunderground v.1.15,2013-04-29 15:04:00,
2013-04-29 11:10:00,64.2,64.2,30.06,SSE,152,1.0,1.0,100,0.00,,,1.18,206,Wunderground v.1.15,2013-04-29 15:10:00,
2013-04-29 11:16:00,64.3,64.3,30.06,SSE,161,1.0,2.0,100,0.00,,,1.18,187,Wunderground v.1.15,2013-04-29 15:16:00,
2013-04-29 11:22:00,64.5,64.2,30.06,South,172,1.0,1.0,99,0.00,,,1.18,199,Wunderground v.1.15,2013-04-29 15:22:00,
2013-04-29 11:28:00,64.5,64.2,30.06,South,172,1.0,2.0,99,0.00,,,1.18,195,Wunderground v.1.15,2013-04-29 15:28:00,
2013-04-29 11:34:00,64.8,64.5,30.06,South,172,1.0,2.0,99,0.00,,,1.18,218,Wunderground v.1.15,2013-04-29 15:34:00,
2013-04-29 11:40:00,64.5,63.9,30.06,South,172,0.0,0.0,98,0.00,,,1.18,289,Wunderground v.1.15,2013-04-29 15:40:00,
2013-04-29 11:46:00,65.0,64.1,30.06,South,172,0.0,0.0,97,0.00,,,1.18,391,Wunderground v.1.15,2013-04-29 15:46:00,
2013-04-29 11:52:00,65.5,63.7,30.06,South,172,0.0,1.0,94,0.00,,,1.18,366,Wunderground v.1.15,2013-04-29 15:52:00,
2013-04-29 11:58:00,66.4,64.3,30.06,South,172,0.0,1.0,93,0.00,,,1.18,403,Wunderground v.1.15,2013-04-29 15:58:00,
2013-04-29 12:04:00,66.9,64.5,30.05,South,172,0.0,0.0,92,0.00,,,1.18,387,Wunderground v.1.15,2013-04-29 16:04:00,
2013-04-29 12:10:00,66.8,63.1,30.05,ESE,112,0.0,0.0,88,0.00,,,1.18,345,Wunderground v.1.15,2013-04-29 16:10:00,
2013-04-29 12:16:00,67.3,64.3,30.04,ESE,109,1.0,2.0,90,0.00,,,1.18,394,Wunderground v.1.15,2013-04-29 16:16:00,
2013-04-29 12:22:00,67.4,63.4,30.04,ESE,109,0.0,1.0,87,0.00,,,1.18,452,Wunderground v.1.15,2013-04-29 16:22:00,
2013-04-29 12:28:00,67.6,62.9,30.04,South,181,0.0,1.0,85,0.00,,,1.18,354,Wunderground v.1.15,2013-04-29 16:28:00,
2013-04-29 12:34:00,67.8,63.1,30.05,South,181,0.0,0.0,85,0.00,,,1.18,245,Wunderground v.1.15,2013-04-29 16:34:00,
2013-04-29 12:41:00,67.4,63.1,30.05,NNW,329,0.0,0.0,86,0.00,,,1.18,234,Wunderground v.1.15,2013-04-29 16:41:00,
2013-04-29 12:46:00,67.3,63.3,30.04,NNW,329,0.0,0.0,87,0.00,,,1.18,232,Wunderground v.1.15,2013-04-29 16:46:00,
2013-04-29 12:52:00,67.4,63.7,30.04,NNW,329,0.0,0.0,88,0.00,,,1.18,396,Wunderground v.1.15,2013-04-29 16:52:00,
2013-04-29 12:58:00,67.8,64.4,30.04,NNW,329,0.0,0.0,89,0.00,,,1.18,315,Wunderground v.1.15,2013-04-29 16:58:00,
2013-04-29 13:04:00,68.1,63.8,30.04,NW,326,0.0,0.0,86,0.00,,,1.18,199,Wunderground v.1.15,2013-04-29 17:04:00,
2013-04-29 13:10:00,67.8,63.8,30.04,NW,326,0.0,0.0,87,0.00,,,1.18,179,Wunderground v.1.15,2013-04-29 17:10:00,
2013-04-29 13:16:00,67.6,63.6,30.04,NW,326,0.0,1.0,87,0.00,,,1.18,266,Wunderground v.1.15,2013-04-29 17:16:00,
2013-04-29 13:22:00,67.6,63.6,30.04,NW,326,0.0,0.0,87,0.00,,,1.18,289,Wunderground v.1.15,2013-04-29 17:22:00,
2013-04-29 13:28:00,68.1,63.4,30.04,NW,320,0.0,2.0,85,0.00,,,1.18,552,Wunderground v.1.15,2013-04-29 17:28:00,
2013-04-29 13:34:00,68.3,63.6,30.03,West,263,1.0,2.0,85,0.00,,,1.18,359,Wunderground v.1.15,2013-04-29 17:34:00,
2013-04-29 13:40:00,68.6,63.9,30.03,West,263,1.0,1.0,85,0.00,,,1.18,230,Wunderground v.1.15,2013-04-29 17:40:00,
2013-04-29 13:46:00,67.9,62.9,30.03,SW,219,2.0,7.0,84,0.00,,,1.18,120,Wunderground v.1.15,2013-04-29 17:46:00,
2013-04-29 13:52:00,67.4,63.1,30.03,South,172,4.0,5.0,86,0.00,,,1.18,90,Wunderground v.1.15,2013-04-29 17:52:00,
2013-04-29 13:58:00,66.8,63.8,30.03,SSE,158,3.0,5.0,90,0.00,,,1.18,113,Wunderground v.1.15,2013-04-29 17:58:00,
2013-04-29 14:04:00,65.8,62.5,30.03,SSW,210,2.0,5.0,89,0.00,,,1.18,113,Wunderground v.1.15,2013-04-29 18:04:00,
2013-04-29 14:10:00,65.8,62.8,30.03,SSW,210,1.0,1.0,90,0.00,,,1.18,157,Wunderground v.1.15,2013-04-29 18:10:00,
2013-04-29 14:16:00,66.0,63.3,30.03,SSW,210,0.0,1.0,91,0.00,,,1.19,204,Wunderground v.1.15,2013-04-29 18:16:00,
2013-04-29 14:22:00,66.4,63.7,30.03,SSW,210,0.0,0.0,91,0.07,,,1.20,280,Wunderground v.1.15,2013-04-29 18:22:00,
2013-04-29 14:28:00,66.9,64.5,30.03,SSW,210,0.0,0.0,92,0.06,,,1.20,313,Wunderground v.1.15,2013-04-29 18:28:00,
2013-04-29 14:34:00,68.1,66.0,30.03,SSW,210,0.0,0.0,93,0.04,,,1.20,572,Wunderground v.1.15,2013-04-29 18:34:00,
2013-04-29 14:40:00,68.4,65.4,30.03,SSW,210,0.0,2.0,90,0.00,,,1.20,484,Wunderground v.1.15,2013-04-29 18:40:00,
2013-04-29 14:46:00,69.3,66.2,30.02,SW,222,2.0,3.0,90,0.00,,,1.20,486,Wunderground v.1.15,2013-04-29 18:46:00,
2013-04-29 14:52:00,69.3,65.6,30.02,South,175,3.0,3.0,88,0.00,,,1.20,567,Wunderground v.1.15,2013-04-29 18:52:00,
2013-04-29 14:58:00,69.8,65.4,30.02,SSW,213,2.0,5.0,86,0.00,,,1.20,918,Wunderground v.1.15,2013-04-29 18:58:00,
2013-04-29 15:04:00,70.3,64.5,30.01,SW,223,3.0,7.0,82,0.00,,,1.20,1031,Wunderground v.1.15,2013-04-29 19:04:00,
2013-04-29 15:10:00,70.9,64.8,30.01,SSW,192,4.0,4.0,81,0.00,,,1.20,371,Wunderground v.1.15,2013-04-29 19:10:00,
2013-04-29 15:16:00,70.4,64.6,30.01,SSW,203,3.0,4.0,82,0.00,,,1.20,234,Wunderground v.1.15,2013-04-29 19:16:00,
2013-04-29 15:22:00,69.8,63.0,30.01,South,191,3.0,3.0,79,0.00,,,1.20,352,Wunderground v.1.15,2013-04-29 19:22:00,
2013-04-29 15:28:00,70.4,63.9,30.01,WSW,244,4.0,4.0,80,0.00,,,1.20,320,Wunderground v.1.15,2013-04-29 19:28:00,
2013-04-29 15:34:00,71.1,65.0,30.00,WSW,247,4.0,5.0,81,0.00,,,1.20,859,Wunderground v.1.15,2013-04-29 19:34:00,
2013-04-29 15:40:00,71.8,64.6,30.00,WSW,237,4.0,7.0,78,0.00,,,1.20,867,Wunderground v.1.15,2013-04-29 19:40:00,
2013-04-29 15:46:00,72.3,63.5,29.99,WSW,240,3.0,5.0,74,0.00,,,1.20,815,Wunderground v.1.15,2013-04-29 19:46:00,
2013-04-29 15:52:00,72.8,62.8,29.99,WSW,237,3.0,3.0,71,0.00,,,1.20,841,Wunderground v.1.15,2013-04-29 19:52:00,
2013-04-29 15:58:00,72.1,61.8,29.99,SW,227,4.0,7.0,70,0.00,,,1.20,208,Wunderground v.1.15,2013-04-29 19:58:00,
2013-04-29 16:04:00,71.3,63.3,29.99,SW,227,3.0,3.0,76,0.00,,,1.20,238,Wunderground v.1.15,2013-04-29 20:04:00,
2013-04-29 16:10:00,70.8,62.1,29.99,SW,227,1.0,3.0,74,0.00,,,1.20,267,Wunderground v.1.15,2013-04-29 20:10:00,
2013-04-29 16:16:00,70.6,62.3,29.98,SW,233,2.0,2.0,75,0.00,,,1.20,266,Wunderground v.1.15,2013-04-29 20:16:00,
2013-04-29 16:22:00,71.3,63.3,29.98,WNW,287,2.0,2.0,76,0.00,,,1.20,667,Wunderground v.1.15,2013-04-29 20:22:00,
2013-04-29 16:28:00,72.0,62.1,29.98,WSW,247,2.0,3.0,71,0.00,,,1.20,653,Wunderground v.1.15,2013-04-29 20:28:00,
2013-04-29 16:34:00,72.3,62.0,29.97,NW,304,2.0,2.0,70,0.00,,,1.20,632,Wunderground v.1.15,2013-04-29 20:34:00,
2013-04-29 16:40:00,72.8,62.4,29.97,West,271,1.0,2.0,70,0.00,,,1.20,625,Wunderground v.1.15,2013-04-29 20:40:00,
2013-04-29 16:46:00,73.3,62.1,29.97,SW,234,2.0,5.0,68,0.00,,,1.20,637,Wunderground v.1.15,2013-04-29 20:46:00,
2013-04-29 16:52:00,74.0,62.3,29.97,SW,234,1.0,2.0,67,0.00,,,1.20,656,Wunderground v.1.15,2013-04-29 20:52:00,
2013-04-29 16:58:00,74.6,63.3,29.97,SW,233,1.0,2.0,68,0.00,,,1.20,639,Wunderground v.1.15,2013-04-29 20:58:00,
2013-04-29 17:04:00,74.4,62.3,29.97,WNW,296,1.0,3.0,66,0.00,,,1.20,598,Wunderground v.1.15,2013-04-29 21:04:00,
2013-04-29 17:10:00,74.0,62.8,29.97,SW,216,1.0,3.0,68,0.00,,,1.20,589,Wunderground v.1.15,2013-04-29 21:10:00,
2013-04-29 17:16:00,73.9,62.2,29.97,SW,216,2.0,3.0,67,0.00,,,1.20,190,Wunderground v.1.15,2013-04-29 21:16:00,
2013-04-29 17:22:00,73.0,61.4,29.97,SW,216,1.0,2.0,67,0.00,,,1.20,146,Wunderground v.1.15,2013-04-29 21:22:00,
2013-04-29 17:28:00,73.0,62.6,29.97,South,186,1.0,2.0,70,0.00,,,1.20,422,Wunderground v.1.15,2013-04-29 21:28:00,
2013-04-29 17:34:00,73.5,61.4,29.97,South,186,1.0,1.0,66,0.00,,,1.20,507,Wunderground v.1.15,2013-04-29 21:34:00,
2013-04-29 17:40:00,73.0,61.0,29.97,South,186,1.0,2.0,66,0.00,,,1.20,171,Wunderground v.1.15,2013-04-29 21:40:00,
2013-04-29 17:46:00,72.5,60.1,29.97,South,186,0.0,2.0,65,0.00,,,1.20,107,Wunderground v.1.15,2013-04-29 21:46:00,
2013-04-29 17:52:00,72.5,60.5,29.97,South,186,0.0,0.0,66,0.00,,,1.20,245,Wunderground v.1.15,2013-04-29 21:52:00,
2013-04-29 17:58:00,73.2,60.7,29.97,South,186,0.0,1.0,65,0.00,,,1.20,387,Wunderground v.1.15,2013-04-29 21:58:00,
2013-04-29 18:04:00,73.7,62.1,29.97,South,186,1.0,2.0,67,0.00,,,1.20,107,Wunderground v.1.15,2013-04-29 22:04:00,
2013-04-29 18:10:00,73.3,61.7,29.97,South,186,1.0,2.0,67,0.00,,,1.20,79,Wunderground v.1.15,2013-04-29 22:10:00,
2013-04-29 18:16:00,73.3,62.5,29.97,South,186,1.0,2.0,69,0.00,,,1.20,69,Wunderground v.1.15,2013-04-29 22:16:00,
2013-04-29 18:22:00,73.0,62.2,29.97,South,186,1.0,2.0,69,0.00,,,1.20,114,Wunderground v.1.15,2013-04-29 22:22:00,
2013-04-29 18:28:00,73.0,62.6,29.97,South,186,1.0,2.0,70,0.00,,,1.20,127,Wunderground v.1.15,2013-04-29 22:28:00,
2013-04-29 18:34:00,73.0,62.6,29.97,South,186,1.0,2.0,70,0.00,,,1.20,99,Wunderground v.1.15,2013-04-29 22:34:00,
2013-04-29 18:40:00,72.7,62.3,29.97,NE,56,2.0,3.0,70,0.00,,,1.20,77,Wunderground v.1.15,2013-04-29 22:40:00,
2013-04-29 18:46:00,72.5,62.6,29.97,NE,56,1.0,3.0,71,0.00,,,1.20,65,Wunderground v.1.15,2013-04-29 22:46:00,
2013-04-29 18:52:00,72.1,62.6,29.97,SE,141,1.0,2.0,72,0.00,,,1.20,48,Wunderground v.1.15,2013-04-29 22:52:00,
2013-04-29 18:58:00,71.8,63.1,29.97,SE,141,1.0,2.0,74,0.00,,,1.20,28,Wunderground v.1.15,2013-04-29 22:58:00,
2013-04-29 19:04:00,71.6,63.3,29.97,SE,141,0.0,2.0,75,0.00,,,1.20,23,Wunderground v.1.15,2013-04-29 23:04:00,
2013-04-29 19:10:00,71.3,63.0,29.97,SE,141,0.0,0.0,75,0.00,,,1.20,18,Wunderground v.1.15,2013-04-29 23:10:00,
2013-04-29 19:16:00,70.9,63.0,29.98,SE,141,0.0,0.0,76,0.00,,,1.20,19,Wunderground v.1.15,2013-04-29 23:16:00,
2013-04-29 19:22:00,70.8,62.9,29.98,SE,141,0.0,0.0,76,0.00,,,1.20,19,Wunderground v.1.15,2013-04-29 23:22:00,
2013-04-29 19:28:00,70.6,62.7,29.98,SE,141,0.0,0.0,76,0.00,,,1.20,19,Wunderground v.1.15,2013-04-29 23:28:00,
2013-04-29 19:34:00,70.4,62.8,29.98,SE,141,0.0,0.0,77,0.00,,,1.20,30,Wunderground v.1.15,2013-04-29 23:34:00,
2013-04-29 19:40:00,70.3,63.1,29.98,SE,141,0.0,0.0,78,0.00,,,1.20,42,Wunderground v.1.15,2013-04-29 23:40:00,
2013-04-29 19:46:00,70.1,62.9,29.98,SE,140,0.0,2.0,78,0.00,,,1.20,26,Wunderground v.1.15,2013-04-29 23:46:00,
2013-04-29 19:52:00,69.8,63.0,29.98,SE,140,0.0,0.0,79,0.00,,,1.20,21,Wunderground v.1.15,2013-04-29 23:52:00,
2013-04-29 19:58:00,69.6,63.2,29.98,SE,140,0.0,1.0,80,0.00,,,1.20,11,Wunderground v.1.15,2013-04-29 23:58:00,
2013-04-29 20:04:00,69.1,63.0,29.99,SE,140,0.0,0.0,81,0.00,,,1.20,7,Wunderground v.1.15,2013-04-30 00:04:00,
2013-04-29 20:10:00,68.8,63.1,29.99,SE,140,0.0,0.0,82,0.00,,,1.20,0,Wunderground v.1.15,2013-04-30 00:10:00,
2013-04-29 20:16:00,68.4,63.0,29.99,SE,140,0.0,0.0,83,0.00,,,1.20,0,Wunderground v.1.15,2013-04-30 00:16:00,
2013-04-29 20:22:00,68.1,62.7,29.99,SE,140,0.0,0.0,83,0.00,,,1.20,0,Wunderground v.1.15,2013-04-30 00:22:00,
2013-04-29 20:28:00,67.8,62.8,29.99,SE,140,0.0,0.0,84,0.00,,,1.20,0,Wunderground v.1.15,2013-04-30 00:28:00,
2013-04-29 20:34:00,67.4,62.4,29.99,SE,140,0.0,0.0,84,0.00,,,1.20,0,Wunderground v.1.15,2013-04-30 00:34:00,
2013-04-29 20:41:00,66.9,61.9,29.99,SE,140,0.0,0.0,84,0.00,,,1.20,0,Wunderground v.1.15,2013-04-30 00:41:00,
2013-04-29 20:46:00,66.6,61.9,30.00,SE,140,0.0,0.0,85,0.00,,,1.20,0,Wunderground v.1.15,2013-04-30 00:46:00,
2013-04-29 20:52:00,66.3,62.0,30.00,SE,140,0.0,0.0,86,0.00,,,1.20,0,Wunderground v.1.15,2013-04-30 00:52:00,
2013-04-29 20:58:00,66.0,61.7,30.00,SE,140,0.0,0.0,86,0.00,,,1.20,0,Wunderground v.1.15,2013-04-30 00:58:00,
2013-04-29 21:04:00,65.8,62.1,30.00,SE,140,0.0,0.0,88,0.00,,,1.20,0,Wunderground v.1.15,2013-04-30 01:04:00,
2013-04-29 21:10:00,65.5,61.9,30.00,SE,140,0.0,0.0,88,0.00,,,1.20,0,Wunderground v.1.15,2013-04-30 01:10:00,
2013-04-29 21:16:00,65.2,61.6,30.00,SE,140,0.0,0.0,88,0.00,,,1.20,0,Wunderground v.1.15,2013-04-30 01:16:00,
2013-04-29 21:22:00,64.8,61.2,30.00,SE,140,0.0,0.0,88,0.00,,,1.20,0,Wunderground v.1.15,2013-04-30 01:22:00,
2013-04-29 21:28:00,64.5,61.5,30.00,SE,140,0.0,0.0,90,0.00,,,1.20,0,Wunderground v.1.15,2013-04-30 01:28:00,
2013-04-29 21:34:00,64.3,61.3,30.01,SE,140,0.0,0.0,90,0.00,,,1.20,0,Wunderground v.1.15,2013-04-30 01:34:00,
2013-04-29 21:40:00,64.2,61.5,30.01,SE,140,0.0,0.0,91,0.00,,,1.20,0,Wunderground v.1.15,2013-04-30 01:40:00,
2013-04-29 21:46:00,64.2,62.1,30.02,SE,140,0.0,1.0,93,0.00,,,1.20,0,Wunderground v.1.15,2013-04-30 01:46:00,
2013-04-29 21:52:00,64.3,62.2,30.02,SE,140,0.0,0.0,93,0.00,,,1.20,0,Wunderground v.1.15,2013-04-30 01:52:00,
2013-04-29 21:58:00,64.5,62.7,30.02,SE,140,0.0,0.0,94,0.00,,,1.20,0,Wunderground v.1.15,2013-04-30 01:58:00,
2013-04-29 22:04:00,64.5,62.7,30.02,SE,140,0.0,0.0,94,0.00,,,1.20,0,Wunderground v.1.15,2013-04-30 02:04:00,
2013-04-29 22:10:00,64.5,62.7,30.02,SE,140,0.0,0.0,94,0.00,,,1.20,0,Wunderground v.1.15,2013-04-30 02:10:00,
2013-04-29 22:16:00,64.5,62.7,30.01,SE,140,0.0,0.0,94,0.00,,,1.20,0,Wunderground v.1.15,2013-04-30 02:16:00,
2013-04-29 22:22:00,64.3,62.5,30.01,SE,140,0.0,0.0,94,0.00,,,1.20,0,Wunderground v.1.15,2013-04-30 02:22:00,
2013-04-29 22:28:00,64.0,62.2,30.01,SE,140,0.0,0.0,94,0.00,,,1.20,0,Wunderground v.1.15,2013-04-30 02:28:00,
2013-04-29 22:34:00,63.9,62.1,30.02,SE,140,0.0,0.0,94,0.00,,,1.20,0,Wunderground v.1.15,2013-04-30 02:34:00,
2013-04-29 22:40:00,64.0,62.5,30.02,SE,140,0.0,0.0,95,0.00,,,1.20,0,Wunderground v.1.15,2013-04-30 02:40:00,
2013-04-29 22:46:00,64.2,62.7,30.02,SE,140,0.0,1.0,95,0.00,,,1.20,0,Wunderground v.1.15,2013-04-30 02:46:00,
2013-04-29 22:52:00,64.3,62.8,30.02,SE,140,0.0,0.0,95,0.00,,,1.20,0,Wunderground v.1.15,2013-04-30 02:52:00,
2013-04-29 22:58:00,64.3,62.8,30.02,SE,140,0.0,0.0,95,0.00,,,1.20,0,Wunderground v.1.15,2013-04-30 02:58:00,
2013-04-29 23:04:00,64.3,62.8,30.02,SE,140,0.0,0.0,95,0.00,,,1.20,0,Wunderground v.1.15,2013-04-30 03:04:00,
2013-04-29 23:10:00,64.3,63.1,30.02,SE,140,0.0,0.0,96,0.00,,,1.20,0,Wunderground v.1.15,2013-04-30 03:10:00,
2013-04-29 23:16:00,64.5,63.3,30.02,SE,140,0.0,1.0,96,0.00,,,1.20,0,Wunderground v.1.15,2013-04-30 03:16:00,
2013-04-29 23:22:00,64.5,63.3,30.02,SE,140,0.0,0.0,96,0.15,,,1.21,0,Wunderground v.1.15,2013-04-30 03:22:00,
2013-04-29 23:28:00,64.5,63.3,30.02,SE,140,0.0,0.0,96,0.19,,,1.23,0,Wunderground v.1.15,2013-04-30 03:28:00,
2013-04-29 23:34:00,64.5,63.3,30.02,SE,140,0.0,0.0,96,0.11,,,1.24,0,Wunderground v.1.15,2013-04-30 03:34:00,
2013-04-29 23:40:00,64.3,63.1,30.02,SE,140,0.0,0.0,96,0.10,,,1.25,0,Wunderground v.1.15,2013-04-30 03:40:00,
2013-04-29 23:46:00,64.3,63.1,30.02,SE,140,0.0,0.0,96,0.06,,,1.25,0,Wunderground v.1.15,2013-04-30 03:46:00,
2013-04-29 23:52:00,64.2,63.0,30.02,SE,140,0.0,0.0,96,0.04,,,1.25,0,Wunderground v.1.15,2013-04-30 03:52:00,
2013-04-29 23:58:00,64.2,63.0,30.02,SE,140,0.0,0.0,96,0.00,,,1.25,0,Wunderground v.1.15,2013-04-30 03:58:00,